sat.trackr.live / text

‹ back to catalog

UNKNOWN

NORAD 81947

UNKNOWN UNKNOWN UNKNOWN

§ Identity

Operator
Country
Launch date
Launch site
Launch vehicle
Mass (kg)
RCS (m²)

External: N2YO · Heavens-Above

§ Orbital elements

Epoch: 2026-09-12T21:50:53.004480Z

Period
98.93 min
Inclination
66.0722°
Eccentricity
0.0375855
Mean motion
14.55524144 rev/d
Perigee alt
441.3 km
Apogee alt
974.0 km
Semi-major
7,085.8 km
B*
2.4138e-4
RAAN
121.4442°
Arg perigee
331.2343°
Mean anomaly
26.8481°
Rev number
67,088

§ Raw data

UNKNOWN1 81947U          26255.91033570  .00002619  00000+0  24138-3 0  99952 81947  66.0722 121.4442 0375855 331.2343  26.8481 14.55524144670887

JSON: /api/v1/satellites/81947 · /tle

For live sub-satellite position, see the globe view (requires WebGL).

§ Visibility from observer

Set your observer location to see the next 7 days of passes ≥ 10°. The values pass through the URL so the page stays shareable.

No JS? Fill the form by hand. The geolocation button needs JavaScript.